This demonstration page uses our WeatherBlox Daily Observations layout. Learn more.

Left ArrowRight Arrow

Hourly Observations for March 9, 2015

Temp ( °F °C ) Dew Point ( °F °C ) Humidity (%) Winds ( mph kmh ) Pressure ( in mb ) Visibility ( mi km ) Precip ( " mm )
12:51 am 00:51 Clear 55 12.8 27 -2.8 34 34 NNW 12 19 29.84 1011 10 16 0.00 0.00
1:51 am 01:51 Clear 52 11.1 27 -2.8 38 38 NW 9 15 29.83 1010 10 16 0.00 0.00
2:51 am 02:51 Clear 48 8.9 28 -2.2 46 46 S 3 6 29.84 1011 10 16 0.00 0.00
3:51 am 03:51 Mostly Clear 47 8.3 28 -2.2 48 48 SE 5 7 29.84 1011 10 16 0.00 0.00
4:51 am 04:51 Partly Cloudy 47 8.3 29 -1.7 50 50 ESE 5 7 29.85 1011 10 16 0.00 0.00
5:51 am 05:51 Mostly Clear 46 7.8 29 -1.7 51 51 ESE 6 9 29.87 1012 10 16 0.00 0.00
6:51 am 06:51 Mostly Cloudy 46 7.8 28 -2.2 50 50 SSE 3 6 29.89 1012 10 16 0.00 0.00
7:51 am 07:51 Partly Cloudy 52 11.1 29 -1.7 41 41 ENE 3 6 29.91 1013 10 16 0.00 0.00
8:51 am 08:51 Sunny 58 14.4 30 -1.1 35 35 Calm 29.90 1013 10 16 0.00 0.00
9:51 am 09:51 Sunny 61 16.1 28 -2.2 29 29 SSE 3 6 29.91 1013 10 16 0.00 0.00
10:51 am 10:51 Sunny 66 18.9 29 -1.7 25 25 VRB 3 6 29.87 1012 10 16 0.00 0.00
11:51 am 11:51 Sunny 71 21.7 28 -2.2 20 20 W 9 15 29.84 1011 10 16 0.00 0.00
12:51 pm 12:51 Sunny 72 22.2 24 -4.4 17 17 undefined N/A 29.80 1009 10 16 0.00 0.00
1:51 pm 13:51 Sunny 76 24.4 19 -7.2 12 12 W 7 11 29.76 1008 10 16 0.00 0.00
2:51 pm 14:51 Sunny 76 24.4 18 -7.8 11 11 VRB 5 7 29.76 1008 10 16 0.00 0.00
3:35 pm 15:35 Mostly Cloudy 75 23.9 21 -6.1 13 13 W 18 30 29.68 1005 10 16 0.00 0.00
3:51 pm 15:51 Cloudy 74 23.3 21 -6.1 14 14 W 13 20 29.75 1008 10 16 0.00 0.00
4:51 pm 16:51 Cloudy 72 22.2 24 -4.4 17 17 E 15 24 29.78 1008 10 16 0.00 0.03
5:51 pm 17:51 Mostly Cloudy 69 20.6 26 -3.3 20 20 SE 10 17 29.79 1009 10 16 0.00 0.00
6:51 pm 18:51 Clear 65 18.3 26 -3.3 23 23 NNE 6 9 29.81 1010 10 16 0.00 0.00
7:51 pm 19:51 Partly Cloudy 64 17.8 26 -3.3 24 24 S 5 7 29.82 1010 10 16 0.00 0.00
8:51 pm 20:51 Clear 60 15.6 26 -3.3 27 27 Calm 29.82 1010 10 16 0.00 0.00
9:51 pm 21:51 Clear 54 12.2 27 -2.8 35 35 ESE 6 9 29.84 1011 10 16 0.00 0.00
10:51 pm 22:51 Clear 51 10.6 27 -2.8 39 39 Calm 29.85 1011 10 16 0.00 0.00
11:51 pm 23:51 Clear 50 10 27 -2.8 41 41 N 3 6 29.85 1011 10 16 0.00 0.00

Powered by AerisWeather